Home   Weather   Sioux Falls   Past weeks
Flag for USA

Past Weather in Sioux Falls, South Dakota, USA — Yesterday and Last 2 Weeks

Now
46 °F

Light rain. Fog.


Feels Like: 40 °F
Forecast: 47 / 39 °F
Wind: 13 mph from North

Location: Foss Field

Current Time: May 19, 2019 at 2:19:16 pm

Latest Report: May 19, 2019 at 1:28 pm


Visibility: 3 mi

Pressure: 29.83 "Hg

Humidity: 93%

Dew Point: 44 °F

Location of Sioux FallsLocation

Past Weather in Sioux Falls — Graph

°F

Sioux Falls Temperature Yesterday

Maximum temperature yesterday: 70 °F (at 9:56 am)
Minimum temperature yesterday: 48 °F (at 11:56 pm)
Average temperature yesterday: 58 °F

High & Low Weather Summary for the Past Weeks

 TemperatureHumidityPressure
High82 °F (May 16, 11:56 am)97% (May 12, 4:35 am)30.29 "Hg (May 12, 4:35 am)
Low31 °F (May 10, 3:56 am)28% (May 4, 2:56 pm)29.47 "Hg (May 18, 9:56 am)
Average55 °F72%29.87 "Hg
* Reported May 4 12:56 pm — May 19 12:56 pm, Sioux Falls. Weather by CustomWeather, © 2019

Note: Actual official high and low records may vary slightly from our data, if they occured in-between our weather recording intervals... More about our weather records

Advertising

Sioux Falls Weather History for the Previous 24 Hours

Scroll right to see more
 ConditionsComfort  
Time TempWeatherWind HumidityBarometerVisibility
12:56 pm
Sun, May 19
48 °FMore clouds than sun.10 mph83%29.83 "Hg10 mi
12:39 pm47 °FLight rain. Mostly cloudy.10 mph86%29.81 "Hg7 mi
12:20 pm47 °FLight rain. Fog.13 mph86%29.80 "Hg4 mi
11:56 am47 °FOvercast.12 mph83%29.80 "Hg10 mi
11:29 am47 °FOvercast.13 mph83%29.78 "Hg10 mi
10:56 am47 °FOvercast.10 mph83%29.78 "Hg10 mi
9:56 am47 °FMostly cloudy.12 mph83%29.77 "Hg10 mi
8:56 am46 °FLight rain. Cloudy.12 mph89%29.76 "Hg10 mi
8:32 am46 °FMostly cloudy.13 mph89%29.73 "Hg10 mi
7:56 am45 °FLight rain. Fog.15 mph93%29.75 "Hg6 mi
7:33 am45 °FLight rain. Fog.13 mph93%29.73 "Hg5 mi
7:10 am45 °FLight rain. Fog.13 mph93%29.71 "Hg3 mi
6:56 am45 °FLight rain. Fog.10 mph93%29.72 "Hg3 mi
5:56 am45 °FLight rain. Fog.12 mph93%29.69 "Hg6 mi
4:56 am45 °FLight rain. Fog.14 mph97%29.68 "Hg5 mi
3:56 am47 °FMostly cloudy.12 mph93%29.66 "Hg10 mi
2:56 am47 °FLow clouds.12 mph93%29.64 "Hg10 mi
1:56 am48 °FFog.12 mph93%29.64 "Hg6 mi
12:56 am48 °FLight rain. Fog.9 mph93%29.67 "Hg5 mi
12:09 am48 °FFog.12 mph96%29.67 "Hg3 mi
11:56 pm
Sat, May 18
48 °FDrizzle. Fog.12 mph96%29.68 "Hg2 mi
11:31 pm49 °FDrizzle. Fog.9 mph93%29.69 "Hg2 mi
11:13 pm49 °FDrizzle. Fog.13 mph93%29.69 "Hg3 mi
10:56 pm49 °FDrizzle. Fog.13 mph93%29.67 "Hg2 mi
10:35 pm49 °FDrizzle. Fog.8 mph97%29.69 "Hg1 mi
10:22 pm50 °FDrizzle. Fog.12 mph93%29.68 "Hg2 mi
9:56 pm50 °FDrizzle. Fog.12 mph93%29.65 "Hg6 mi
8:56 pm50 °FDrizzle. Fog.12 mph96%29.63 "Hg3 mi
7:56 pm53 °FDrizzle. Fog.12 mph93%29.63 "Hg1 mi
6:56 pm56 °FDrizzle. Fog.15 mph90%29.61 "Hg6 mi
5:56 pm63 °FMostly cloudy.8 mph81%29.58 "Hg10 mi
4:56 pm62 °FOvercast.8 mph83%29.59 "Hg10 mi
3:56 pm62 °FOvercast.7 mph83%29.59 "Hg10 mi
2:56 pm62 °FOvercast.7 mph80%29.57 "Hg10 mi
Weather by CustomWeather, © 2019

See weather overview